Regional Weather Roundup
Issued by NWS

Home | Current Version | Previous Version | Graphics & Text | Print | Product List | Glossary On
Versions: 1 2 3 4 5 6 7 8 9 10 11 12 13 14 15 16 17 18 19 20 21 22 23 24 25 26 27 28 29 30 31 32 33 34 35 36 37 38 39 40 41 42 43 44 45 46 47 48 49 50
000
ASUS43 KIND 250009
RWRIN

WEATHER ROUNDUP FOR INDIANA
NATIONAL WEATHER SERVICE INDIANAPOLIS IN
700 PM EST WED DEC 24 2014

NOTE: "FAIR" INDICATES FEW OR NO CLOUDS BELOW 12,000 FEET WITH NO
SIGNIFICANT WEATHER AND/OR OBSTRUCTIONS TO VISIBILITY.

* - STATION DOES NOT REPORT WEATHER SUCH AS PRECIPITATION OR FOG.

+ - STATION NOT QUALITY CONTROLLED BY THE NATIONAL WEATHER SERVICE.
    USE DATA WITH CAUTION...ESPECIALLY DEWPOINT AND RELATIVE
    HUMIDITY OBSERVATIONS.

INZ001>003-010>013-019-020-250100-
NORTHWEST INDIANA

CITY           SKY/WX    TMP DP  RH WIND       PRES   REMARKS
GARY /AIRPORT/ LGT RAIN  39  34  81 W14       29.53R
KNOX *+        CLOUDY    36  32  86 W10       29.51R
LA PORTE +     RAIN      37  37 100 W9        29.51R
6HR MIN TEMP:  37; 6HR MAX TEMP:  42; 6HR PCP:  0.09;

MICHIGAN CITY+ DRIZZLE   36  34  93 W10       29.51R
MONTICELLO +   LGT RAIN  36  35  96 W12       29.56R
RENSSELAER +   DRIZZLE   36  36 100 W15G21    29.56R
VALPARAISO     LGT RAIN  36  35  96 W14       29.53R
6HR MIN TEMP:  36; 6HR MAX TEMP:  40; 6HR PCP:  0.09;


$$

LMZ046-743>745-250100-
SOUTHERN LAKE MICHIGAN

STATION/POSITION TIME  TEMP WIND        PRES
                       AIR  DIR/SP/G
                 (UTC) (F)  (DEG/KT/KT) (MB)
MICHIGAN CITY    0000   38  240/ 20/ 23   N/A

$$

INZ004-005-014>016-021>024-250100-
NORTH CENTRAL INDIANA

CITY           SKY/WX    TMP DP  RH WIND       PRES   REMARKS
GOSHEN         LGT SNOW  34  32  92 W13       29.49R FOG     WCI  25
6HR MIN TEMP:  34; 6HR MAX TEMP:  41; 6HR PCP:  0.27;

LOGANSPORT +   DRIZZLE   34  32  93 W14       29.57R WCI  24
PERU/GRISSOM   LGT RAIN  36  36 100 W12       29.55R
6HR MIN TEMP:  36; 6HR MAX TEMP:  41; 6HR PCP:  0.27;

ROCHESTER +    RAIN      37  36  93 W9        29.53R
SOUTH BEND     LGT SNOW  34  32  92 W7        29.50R FOG     WCI  28
6HR MIN TEMP:  34; 6HR MAX TEMP:  41; 6HR PCP:  0.30;

WARSAW +       LGT RAIN  34  34 100 W14       29.50R WCI  24

$$

INZ006>009-017-018-025>027-250100-
NORTHEAST INDIANA

CITY           SKY/WX    TMP DP  RH WIND       PRES   REMARKS
ANGOLA *+      CLOUDY    36  34  93 W10       29.44R
AUBURN +       RAIN      36  34  93 W16G24    29.48R
FORT WAYNE     LGT RAIN  37  35  92 W18       29.51R
6HR MIN TEMP:  37; 6HR MAX TEMP:  43; 6HR PCP:  0.14;

HUNTINGTON +   CLOUDY    36  35  96 W18G24    29.52R
6HR MIN TEMP:  36; 6HR MAX TEMP:  41; 6HR PCP:  0.13;


$$

INZ028-029-035-036-043>045-051>053-250100-
WEST CENTRAL INDIANA

CITY           SKY/WX    TMP DP  RH WIND       PRES   REMARKS
GREENCASTLE +  CLOUDY    36  32  87 SW8       29.63R
LAFAYETTE      LGT RAIN  36  34  92 W9        29.59R
6HR MIN TEMP:  35; 6HR MAX TEMP:  39; 6HR PCP:  0.17;

TERRE HAUTE    CLOUDY    38  34  85 W16G26    29.66R
6HR MIN TEMP:  38; 6HR MAX TEMP:  40; 6HR PCP:  0.07;


$$

INZ030>032-037>040-046>048-054>057-064-065-250100-
CENTRAL INDIANA

CITY           SKY/WX    TMP DP  RH WIND       PRES   REMARKS
CP ATTERBURY + CLOUDY    37  34  87 MISG      29.65R
COLUMBUS       CLOUDY    37  36  93 W13       29.65R
FRANKFORT +    LGT RAIN  36  36 100 SW12      29.60R
INDIANAPOLIS   DRIZZLE   36  34  92 SW14      29.61R
6HR MIN TEMP:  35; 6HR MAX TEMP:  39; 6HR PCP:  0.15;

-EAGLE CREEK   CLOUDY    36  34  92 SW7       29.60R
6HR MIN TEMP:  36; 6HR MAX TEMP:  40; 6HR PCP:  0.15;

KOKOMO *+      CLOUDY    36  32  87 W16       29.56R
MARION +       CLOUDY    36  35  95 W16G22    29.56R
MT COMFORT *+  CLOUDY    37  37 100 W13       29.60R
SHELBYVILLE    CLOUDY    39  34  82 W14       29.61R
6HR MIN TEMP:  39; 6HR MAX TEMP:  44; 6HR PCP:  0.17;

ZIONSVILLE +   DRIZZLE   36  33  87 W13       29.59R
6HR MIN TEMP:  36; 6HR MAX TEMP:  41; 6HR PCP:  0.15;


$$

INZ033-034-041-042-049-050-058-059-250100-
EAST CENTRAL INDIANA

CITY           SKY/WX    TMP DP  RH WIND       PRES   REMARKS
MUNCIE         MIX PCPN  37  34  89 W16G24    29.55R
6HR MIN TEMP:  37; 6HR MAX TEMP:  42; 6HR PCP:  0.18;


$$

INZ060-061-067>069-081>083-085>088-250100-
SOUTHWEST INDIANA

CITY           SKY/WX    TMP DP  RH WIND       PRES   REMARKS
EVANSVILLE     CLOUDY    41  36  82 SW12      29.76R
6HR MIN TEMP:  41; 6HR MAX TEMP:  45; 6HR PCP: TRACE;

HUNTINGBURG *+ CLOUDY    39  34  81 W12       29.74R
6HR MIN TEMP:  39; 6HR MAX TEMP:  43; 6HR PCP:  0.01;

WASHINGTON +   CLOUDY    39  34  81 SW12G17   29.70R
6HR MIN TEMP:  39; 6HR MAX TEMP:  42;


$$

INZ062-063-066-070>080-084-089>092-250100-
SOUTH CENTRAL AND SOUTHEAST INDIANA

CITY           SKY/WX    TMP DP  RH WIND       PRES   REMARKS
BLOOMINGTON    LGT RAIN  38  36  92 W10       29.66R
6HR MIN TEMP:  37; 6HR MAX TEMP:  41; 6HR PCP:  0.07;


$$




USA.gov is the U.S. government's official web portal to all federal, state and local government web resources and services.